Location: Marcé
(47.5801°N, 0.3280°W)
Time: 08:59:59
(UTC+01:00)

Vanguard 1 - Pass Details

Date: 03 December 2021
Orbit: 652 x 3830 km, 34.2° (Epoch: 16 January)

Event Time Altitude Azimuth Distance (km) Brightness Sun altitude
Exits shadow 01:43:51 28° 108° (ESE) 5,005 13.5 -62.4°
Drops below altitude 10° 01:50:44 10° 95° (E) 5,914 14.1 -61.8°
Sets 01:54:48 0° 90° (E) 6,588 14.5 -61.5°
